Погода в Большой Усе

Россия / Пермский край     56°44′16″N   55°05′58″E
темп.,
°C
ветер,
м/с
пор.,
м/с
влажн.,
%
обл.,
%
осадки,
мм/ч
давл.,
гПа
погр.,
м
7 августа, вс
вс723:00+21сз226399 0.0 102221
02:00+21ссв016224 0.0 102111
05:00+17св11745 0.0 102111
08:00+21всв116538 0.0 102286
11:00+25в225257 0.0 1021615
14:00+27всв2142100 0.0 10201624
17:00+28с113933 0.0 10201871
20:00+24всв225596 0.0 101930
8 августа, пн
пн823:00+22ю115493 0.0 101911
02:00+19ссз116588 0.0 102011
05:00+19ссв116557 0.0 102011
08:00+22св016314 0.0 102074
11:00+26с225156 0.0 1020623
14:00+28св324513 0.0 10201857
17:00+28ссв224541 0.0 1019881
20:00+23зюз116395 0.0 101911
9 августа, вт
вт923:00+22ссв116037 0.0 102011
02:00+19всв117453 0.0 102011
05:00+17св11806 0.0 102011
08:00+21ссв126796 0.0 102091
11:00+26ссв225361 0.0 1020642
14:00+28ссв224392 0.0 10191939
17:00+29ссв223759 0.0 10182418
20:00+24ссв2260100 0.0 101819
10 августа, ср
ср1023:00+20св1169100 0.0 101912
02:00+19всв116876 0.0 101911
05:00+18ююв1172100 0.0 101911
08:00+21ююв1267100 0.0 101999
11:00+25юз1155100 0.0 1019463
14:00+27ююз224766 0.0 10181175
17:00+26ю2354100 0.1 10171015
20:00+22в347733 1.2 101870
11 августа, чт
чт1123:00+18в1187100 4.9 101811
02:00+18ю2288100 1.1 101721
05:00+17юз2289100 1.8 101716
08:00+19ю1186100 0.4 101786
11:00+23юз3571100 0.5 1016536
14:00+25юз5763100 0.8 10151284
17:00+22сз3576100 3.6 1015373
20:00+18з2893100 4.9 1015409